Find STARLINK-37629

NORAD ID: 799500894 Int'l Des: 2026-127A Constellation: starlink operational

当前视图

正在加载3D地球...

关于 STARLINK-37629

正在加载描述...

即将过境

Passes for default location (London). Set your location on the main map for personalized predictions.

高度历史

Loading altitude history...

两行轨道根数

1 99999C 2026127A 26159.93659721 .00839320 00000-0 910380-4 0 1598
2 99999 53.1617 304.7700 0008802 291.8360 162.5058 16.08646014 12
Epoch: Jun 8, 2026 • Age: 4 hours

当前状态

高度 258.6 km
速度 7.75 km/s
星下点 -34.48°S, 132.7°W
发射日期 Jun 4, 2026
运行时间 4 days
类型 internet

Most Searched